TimeCST,TemperatureF,Dew PointF,Humidity,Sea Level PressureIn,VisibilityMPH,Wind Direction,Wind SpeedMPH,Gust SpeedMPH,PrecipitationIn,Events,Conditions,WindDirDegrees,DateUTC
12:24 AM,42.8,41.0,93,30.16,7.0,North,10.4,-,0.04,Rain,Rain,360,2011-12-05 06:24:00
12:54 AM,42.8,39.2,87,30.16,6.0,North,10.4,-,N/A,Rain,Rain,350,2011-12-05 06:54:00
1:54 AM,42.1,39.9,92,30.16,9.0,North,8.1,-,0.03,Rain,Rain,10,2011-12-05 07:54:00
2:16 AM,42.8,39.2,87,30.14,8.0,NNE,9.2,-,0.03,Rain,Light Rain,20,2011-12-05 08:16:00
2:33 AM,42.8,39.2,87,30.14,10.0,NNE,9.2,-,0.04,Rain,Light Rain,20,2011-12-05 08:33:00
2:54 AM,42.1,39.9,92,30.14,9.0,NNE,9.2,-,0.04,Rain,Light Rain,20,2011-12-05 08:54:00
3:54 AM,42.8,39.2,87,30.14,7.0,North,9.2,-,N/A,Rain,Rain,360,2011-12-05 09:54:00
4:54 AM,41.0,37.4,87,30.18,5.0,NNW,13.8,19.6,N/A,Rain,Rain,340,2011-12-05 10:54:00
5:26 AM,39.2,37.4,93,30.18,6.0,North,12.7,20.7,0.07,Rain,Rain,360,2011-12-05 11:26:00
5:54 AM,39.9,37.9,93,30.17,9.0,NNE,11.5,20.7,0.11,Rain,Light Rain,20,2011-12-05 11:54:00
6:27 AM,39.2,37.4,93,30.15,8.0,NNE,9.2,-,0.04,Rain,Light Rain,30,2011-12-05 12:27:00
6:54 AM,41.0,39.0,93,30.15,9.0,NE,9.2,-,0.06,Rain,Light Rain,40,2011-12-05 12:54:00
7:54 AM,41.0,39.0,93,30.17,5.0,NNW,4.6,-,0.06,Rain,Rain,330,2011-12-05 13:54:00
8:54 AM,41.0,39.0,93,30.11,10.0,NNE,9.2,-,0.06,Rain,Light Rain,20,2011-12-05 14:54:00
9:54 AM,41.0,39.0,93,30.13,6.0,North,8.1,-,0.03,Rain,Light Rain,360,2011-12-05 15:54:00
10:54 AM,41.0,39.0,93,30.11,6.0,North,10.4,-,0.04,Rain,Rain,350,2011-12-05 16:54:00
11:54 AM,39.0,37.0,93,30.10,3.0,North,16.1,21.9,0.08,Rain,Rain,350,2011-12-05 17:54:00
12:54 PM,39.9,37.0,89,30.09,3.0,NNW,13.8,19.6,0.12,Rain,Rain,340,2011-12-05 18:54:00
1:04 PM,39.2,37.4,93,30.08,2.5,NNW,11.5,20.7,0.05,Rain,Heavy Rain,340,2011-12-05 19:04:00
1:13 PM,39.2,37.4,93,30.08,3.0,NNW,13.8,23.0,0.07,Rain,Rain,330,2011-12-05 19:13:00
1:54 PM,39.0,37.0,93,30.09,2.5,North,13.8,23.0,0.18,Rain,Rain,350,2011-12-05 19:54:00
2:54 PM,39.0,37.0,93,30.10,4.0,NNW,10.4,-,0.11,Rain,Light Rain,340,2011-12-05 20:54:00
3:54 PM,39.9,37.0,89,30.11,5.0,North,12.7,16.1,0.02,Rain,Light Rain,350,2011-12-05 21:54:00
4:54 PM,39.2,37.4,93,30.11,10.0,North,10.4,-,N/A,,Overcast,350,2011-12-05 22:54:00
5:52 PM,39.2,37.4,93,30.16,2.5,North,11.5,20.7,0.01,Rain,Light Rain,350,2011-12-05 23:52:00
5:54 PM,39.9,37.0,89,30.17,2.5,NNW,11.5,20.7,0.01,Rain,Light Rain,340,2011-12-05 23:54:00
6:01 PM,39.2,37.4,93,30.15,5.0,NNW,13.8,-,0.00,Rain,Light Rain,330,2011-12-06 00:01:00
6:54 PM,39.0,37.0,93,30.15,10.0,North,12.7,18.4,0.01,,Overcast,10,2011-12-06 00:54:00
7:54 PM,39.9,37.0,89,30.15,10.0,North,11.5,18.4,N/A,,Overcast,350,2011-12-06 01:54:00
8:54 PM,39.9,37.0,89,30.15,10.0,North,9.2,-,N/A,,Overcast,360,2011-12-06 02:54:00
9:54 PM,41.0,37.4,87,30.15,10.0,North,8.1,-,N/A,,Overcast,350,2011-12-06 03:54:00
10:28 PM,39.2,37.4,93,30.15,10.0,NNW,6.9,-,N/A,,Overcast,340,2011-12-06 04:28:00
10:54 PM,39.9,37.0,89,30.16,10.0,North,9.2,-,N/A,,Overcast,350,2011-12-06 04:54:00
11:54 PM,39.9,37.0,89,30.16,8.0,North,8.1,-,N/A,,Overcast,350,2011-12-06 05:54:00